FW8871 Weather Reports


Display with metric or nautical units.
time (UTC)temp
F
wind
direction
speed
MPH
gust
MPH
rain 1hr
in
rain 24hr
in
rain mn
in
humidity
%
barometer
mb
20260509122549 57 232 6.0 10.0 0.00 0.00 0.00 59 1013.1
20260509122048 57 252 6.0 10.0 0.00 0.00 0.00 60 1013.2
20260509121554 56 222 5.0 10.0 0.00 0.00 0.00 60 1013.0
20260509121049 56 226 6.0 11.0 0.00 0.00 0.00 60 1012.9
20260509120549 55 229 7.0 11.0 0.00 0.00 0.00 61 1012.7
20260509120053 55 208 7.0 11.0 0.00 0.00 0.00 62 1012.7
20260509115548 54 197 7.0 11.0 0.00 0.00 0.00 63 1012.4
20260509115045 53 176 8.0 11.0 0.00 0.00 0.00 62 1012.0
20260509114553 53 186 6.0 9.0 0.00 0.00 0.00 62 1012.1
20260509114048 54 193 4.0 8.0 0.00 0.00 0.00 61 1012.2
20260509113547 54 183 5.0 8.0 0.00 0.00 0.00 61 1012.3
20260509113058 54 205 6.0 10.0 0.00 0.00 0.00 60 1012.3
20260509112548 54 184 5.0 10.0 0.00 0.00 0.00 60 1012.2
20260509112048 54 200 4.0 10.0 0.00 0.00 0.00 60 1012.3
20260509111557 54 200 6.0 8.0 0.00 0.00 0.00 60 1012.3
20260509111048 54 165 5.0 7.0 0.00 0.00 0.00 60 1012.2
20260509110548 55 165 5.0 8.0 0.00 0.00 0.00 59 1012.3
20260509110055 55 167 5.0 8.0 0.00 0.00 0.00 58 1012.2
20260509105544 56 193 5.0 8.0 0.00 0.00 0.00 57 1012.3
20260509105048 56 172 5.0 9.0 0.00 0.00 0.00 57 1012.3
20260509104555 57 186 6.0 9.0 0.00 0.00 0.00 56 1012.1
20260509104049 57 164 6.0 10.0 0.00 0.00 0.00 56 1012.2
20260509103547 57 203 7.0 10.0 0.00 0.00 0.00 56 1012.2
20260509103058 57 187 6.0 11.0 0.00 0.00 0.00 56 1012.0
20260509102548 57 158 7.0 11.0 0.00 0.00 0.00 56 1012.0
20260509102046 57 203 7.0 11.0 0.00 0.00 0.00 55 1012.3
20260509101554 56 198 6.0 10.0 0.00 0.00 0.00 56 1012.5
20260509101045 56 192 7.0 10.0 0.00 0.00 0.00 56 1012.5
20260509100548 56 183 7.0 10.0 0.00 0.00 0.00 57 1012.5
20260509100057 55 152 7.0 10.0 0.00 0.00 0.00 58 1012.4
20260509095545 55 179 7.0 10.0 0.00 0.00 0.00 58 1012.4
20260509095049 54 173 7.0 10.0 0.00 0.00 0.00 58 1012.4
20260509094558 54 162 7.0 10.0 0.00 0.00 0.00 59 1012.5
20260509094048 53 184 6.0 9.0 0.00 0.00 0.00 59 1012.4
20260509093548 53 155 6.0 8.0 0.00 0.00 0.00 59 1012.3
20260509093058 53 195 6.0 8.0 0.00 0.00 0.00 59 1012.3
20260509092547 53 165 6.0 8.0 0.00 0.00 0.00 59 1012.3
20260509092048 53 143 6.0 8.0 0.00 0.00 0.00 60 1012.4
20260509091556 52 173 6.0 8.0 0.00 0.00 0.00 60 1012.4
20260509091048 52 176 6.0 8.0 0.00 0.00 0.00 60 1012.3
20260509090545 52 154 5.0 7.0 0.00 0.00 0.00 59 1012.2
20260509090053 53 152 5.0 8.0 0.00 0.00 0.00 59 1012.2
20260509085545 53 148 6.0 8.0 0.00 0.00 0.00 59 1012.2
20260509085049 53 153 5.0 8.0 0.00 0.00 0.00 58 1012.3
20260509084554 53 154 6.0 8.0 0.00 0.00 0.00 58 1012.4
20260509084049 53 172 6.0 9.0 0.00 0.00 0.00 58 1012.5
20260509083548 53 198 6.0 9.0 0.00 0.00 0.00 58 1012.6
20260509083055 53 186 6.0 8.0 0.00 0.00 0.00 59 1012.6
20260509082547 52 186 5.0 7.0 0.00 0.00 0.00 59 1012.6
20260509082047 52 206 5.0 7.0 0.00 0.00 0.00 59 1012.5
20260509081552 52 163 5.0 7.0 0.00 0.00 0.00 59 1012.6
20260509081052 52 162 5.0 7.0 0.00 0.00 0.00 59 1012.6
20260509080550 52 148 5.0 7.0 0.00 0.00 0.00 59 1012.6
20260509080053 52 165 5.0 7.0 0.00 0.00 0.00 58 1012.6
20260509075549 52 193 5.0 7.0 0.00 0.00 0.00 58 1012.7
20260509075050 52 177 5.0 9.0 0.00 0.00 0.00 58 1012.9
20260509074558 53 189 5.0 9.0 0.00 0.00 0.00 58 1012.7
20260509074047 53 160 6.0 9.0 0.00 0.00 0.00 58 1012.7
20260509073549 52 201 5.0 9.0 0.00 0.00 0.00 59 1012.7
20260509073101 51 192 7.0 9.0 0.00 0.00 0.00 61 1012.7
20260509072551 50 198 6.0 8.0 0.00 0.00 0.00 63 1012.9
20260509072048 49 162 5.0 6.0 0.00 0.00 0.00 64 1012.9
20260509071605 49 0 0.0 0.0 0.00 0.00 0.00 64 1012.9
20260509071047 49 0 0.0 0.0 0.00 0.00 0.00 64 1012.9
20260509070548 49 0 0.0 0.0 0.00 0.00 0.00 64 1012.9
20260509070051 50 0 0.0 0.0 0.00 0.00 0.00 64 1013.0
20260509065552 50 0 0.0 0.0 0.00 0.00 0.00 64 1013.1
20260509065048 50 0 0.0 0.0 0.00 0.00 0.00 63 1013.1
20260509064601 50 0 0.0 0.0 0.00 0.00 0.00 64 1013.2
20260509064050 50 0 0.0 0.0 0.00 0.00 0.00 64 1013.2
20260509063549 49 0 0.0 0.0 0.00 0.00 0.00 65 1013.2
20260509063050 49 0 0.0 0.0 0.00 0.00 0.00 65 1013.4
20260509062548 49 0 0.0 0.0 0.00 0.00 0.00 65 1013.4
20260509062048 48 0 0.0 0.0 0.00 0.00 0.00 65 1013.4
20260509061601 49 0 0.0 0.0 0.00 0.00 0.00 64 1013.2
20260509061049 49 0 0.0 4.0 0.00 0.00 0.00 64 1013.2
20260509060549 49 0 0.0 5.0 0.00 0.00 0.00 65 1013.1
20260509060050 49 131 3.0 6.0 0.00 0.00 0.00 64 1013.2
20260509055549 49 141 4.0 6.0 0.00 0.00 0.00 64 1013.4
20260509055048 49 158 4.0 5.0 0.00 0.00 0.00 64 1013.3
20260509054555 49 141 4.0 5.0 0.00 0.00 0.00 64 1013.3
20260509054048 49 143 4.0 5.0 0.00 0.00 0.00 65 1013.4
20260509053548 48 157 4.0 6.0 0.00 0.00 0.00 67 1013.3
20260509053052 48 146 4.0 6.0 0.00 0.00 0.00 67 1013.4
20260509052550 47 148 5.0 6.0 0.00 0.00 0.00 68 1013.3
20260509052045 47 149 0.0 0.0 0.00 0.00 0.00 67 1013.3
20260509051551 47 0 0.0 0.0 0.00 0.00 0.00 67 1013.1
20260509051045 47 0 0.0 0.0 0.00 0.00 0.00 68 1013.1
20260509050548 47 0 0.0 0.0 0.00 0.00 0.00 68 1013.2
20260509050056 47 0 0.0 0.0 0.00 0.00 0.00 68 1013.2
20260509045548 46 0 0.0 2.0 0.00 0.00 0.00 69 1013.1
20260509045049 46 0 0.0 2.0 0.00 0.00 0.00 69 1013.0
20260509044550 47 0 0.0 0.0 0.00 0.00 0.00 69 1012.9
20260509044048 47 0 0.0 0.0 0.00 0.00 0.00 68 1013.0
20260509043547 47 0 0.0 0.0 0.00 0.00 0.00 68 1013.0
20260509043104 46 0 0.0 0.0 0.00 0.00 0.00 69 1012.9
20260509042548 46 0 0.0 0.0 0.00 0.00 0.00 68 1012.9
20260509042048 47 0 0.0 0.0 0.00 0.00 0.00 67 1013.0
20260509041552 47 0 0.0 0.0 0.00 0.00 0.00 66 1012.8
20260509041046 47 0 0.0 0.0 0.00 0.00 0.00 67 1012.7
20260509040545 47 0 0.0 0.0 0.00 0.00 0.00 66 1012.7
20260509040054 47 0 0.0 0.0 0.00 0.00 0.00 64 1012.7
20260509035550 48 0 0.0 0.0 0.00 0.00 0.00 63 1012.9
20260509035046 48 0 0.0 0.0 0.00 0.00 0.00 61 1012.8
20260509034554 49 0 0.0 0.0 0.00 0.00 0.00 59 1012.9
20260509034045 50 0 0.0 0.0 0.00 0.00 0.00 59 1012.7
20260509033548 50 0 0.0 0.0 0.00 0.00 0.00 59 1012.7
20260509033056 51 0 0.0 0.0 0.00 0.00 0.00 58 1012.7
20260509032548 50 0 0.0 0.0 0.00 0.00 0.00 60 1012.5
20260509032048 50 0 0.0 0.0 0.00 0.00 0.00 61 1012.5
20260509031554 49 0 0.0 0.0 0.00 0.00 0.00 59 1012.5
20260509031048 50 0 0.0 0.0 0.00 0.00 0.00 56 1012.4
20260509030549 52 0 0.0 0.0 0.00 0.00 0.00 54 1012.3
20260509030056 53 0 0.0 0.0 0.00 0.00 0.00 52 1012.3
20260509025551 54 0 0.0 0.0 0.00 0.00 0.00 50 1012.2
20260509025051 56 0 0.0 0.0 0.00 0.00 0.00 49 1012.4
20260509024552 57 0 0.0 0.0 0.00 0.00 0.00 47 1012.2
20260509024047 58 0 0.0 0.0 0.00 0.00 0.00 47 1011.9
20260509023612 59 0 0.0 0.0 0.00 0.00 0.00 46 1012.0
20260509023052 59 0 0.0 0.0 0.00 0.00 0.00 47 1012.0
20260509022548 59 0 0.0 0.0 0.00 0.00 0.00 47 1012.0
20260509022045 59 0 0.0 0.0 0.00 0.00 0.00 46 1012.2
20260509021554 60 0 0.0 0.0 0.00 0.00 0.00 45 1012.2
20260509021048 60 0 0.0 0.0 0.00 0.00 0.00 45 1012.3
20260509020546 60 0 0.0 0.0 0.00 0.00 0.00 44 1012.2
20260509020050 61 0 0.0 0.0 0.00 0.00 0.00 43 1012.2
20260509015548 62 0 0.0 0.0 0.00 0.00 0.00 40 1012.2
20260509015044 63 0 0.0 0.0 0.00 0.00 0.00 39 1012.2
20260509014553 65 0 0.0 0.0 0.00 0.00 0.00 38 1012.1
20260509014048 66 0 0.0 0.0 0.00 0.00 0.00 38 1012.0
20260509013548 67 0 0.0 0.0 0.00 0.00 0.00 37 1012.0
20260509013057 68 0 0.0 0.0 0.00 0.00 0.00 37 1011.8
20260509012545 69 0 0.0 0.0 0.00 0.00 0.00 36 1011.8
20260509012049 69 0 0.0 0.0 0.00 0.00 0.00 35 1011.8
20260509011556 70 0 0.0 0.0 0.00 0.00 0.00 34 1011.8
20260509011048 71 0 0.0 0.0 0.00 0.00 0.00 33 1011.9
20260509010546 71 0 0.0 2.0 0.00 0.00 0.00 32 1011.8
20260509010054 72 0 0.0 6.0 0.00 0.00 0.00 32 1011.7
20260509005545 72 0 1.0 10.0 0.00 0.00 0.00 31 1011.6
20260509005049 72 11 5.0 11.0 0.00 0.00 0.00 31 1011.6
20260509004606 73 8 7.0 12.0 0.00 0.00 0.00 30 1011.7
20260509004048 73 19 6.0 12.0 0.00 0.00 0.00 30 1011.8
20260509003550 73 16 4.0 12.0 0.00 0.00 0.00 30 1011.7
20260509003051 73 358 7.0 14.0 0.00 0.00 0.00 29 1011.7
20260509002548 73 11 8.0 14.0 0.00 0.00 0.00 29 1011.7
20260509002048 73 355 9.0 16.0 0.00 0.00 0.00 29 1011.7
20260509001554 73 1 10.0 16.0 0.00 0.00 0.00 29 1011.7
20260509001047 73 17 11.0 17.0 0.00 0.00 0.00 29 1011.7
20260509000545 74 360 9.0 17.0 0.00 0.00 0.00 29 1011.7
20260509000053 74 1 5.0 13.0 0.00 0.00 0.00 30 1011.7
20260508235546 74 55 3.0 14.0 0.00 0.00 0.00 29 1011.7
20260508235047 74 55 9.0 14.0 0.00 0.00 0.00 29 1011.7
20260508234552 74 29 9.0 17.0 0.00 0.00 0.00 29 1011.7
20260508234045 74 334 10.0 18.0 0.00 0.00 0.00 29 1011.7
20260508233547 74 334 10.0 18.0 0.00 0.00 0.00 29 1011.7
20260508233055 74 13 11.0 18.0 0.00 0.00 0.00 29 1011.5
20260508232548 74 29 11.0 19.0 0.00 0.00 0.00 29 1011.6
20260508232050 74 359 12.0 20.0 0.00 0.00 0.00 28 1011.5
20260508231558 75 316 12.0 20.0 0.00 0.00 0.00 29 1011.4
20260508231048 75 4 12.0 20.0 0.00 0.00 0.00 29 1011.4
20260508230548 75 321 11.0 21.0 0.00 0.00 0.00 29 1011.3
20260508230056 75 319 15.0 21.0 0.00 0.00 0.00 28 1011.3
20260508225547 75 347 14.0 21.0 0.00 0.00 0.00 29 1011.3
20260508225047 75 13 10.0 20.0 0.00 0.00 0.00 29 1011.3
20260508224559 76 338 10.0 22.0 0.00 0.00 0.00 28 1011.3
20260508224045 76 309 12.0 22.0 0.00 0.00 0.00 28 1011.4
20260508223545 76 328 10.0 22.0 0.00 0.00 0.00 29 1011.3
20260508223055 76 328 16.0 22.0 0.00 0.00 0.00 28 1011.3
20260508222546 75 309 10.0 17.0 0.00 0.00 0.00 31 1011.1
20260508222045 76 17 12.0 20.0 0.00 0.00 0.00 29 1011.3
20260508221606 76 314 13.0 21.0 0.00 0.00 0.00 29 1011.1
20260508221046 75 342 14.0 23.0 0.00 0.00 0.00 30 1011.3
20260508220545 75 325 17.0 23.0 0.00 0.00 0.00 30 1011.3
20260508220058 75 351 13.0 22.0 0.00 0.00 0.00 30 1011.3
20260508215545 75 2 11.0 22.0 0.00 0.00 0.00 31 1011.4
20260508215048 76 345 13.0 21.0 0.00 0.00 0.00 31 1011.4
20260508214607 76 321 13.0 20.0 0.00 0.00 0.00 30 1011.3
20260508214048 75 323 9.0 19.0 0.00 0.00 0.00 31 1011.3
20260508213548 75 347 11.0 21.0 0.00 0.00 0.00 30 1011.5
20260508213057 76 314 11.0 24.0 0.00 0.00 0.00 30 1011.1
20260508212546 76 324 16.0 24.0 0.00 0.00 0.00 30 1011.4
20260508212045 75 11 16.0 24.0 0.00 0.00 0.00 31 1011.5
20260508211559 76 12 13.0 21.0 0.00 0.00 0.00 30 1011.3
20260508211046 76 327 13.0 24.0 0.00 0.00 0.00 30 1011.3
20260508210548 76 313 16.0 25.0 0.00 0.00 0.00 30 1011.4
20260508210056 76 335 17.0 25.0 0.00 0.00 0.00 31 1011.4
20260508205545 75 359 10.0 19.0 0.00 0.00 0.00 31 1011.4
20260508205045 76 337 12.0 24.0 0.00 0.00 0.00 32 1011.5
20260508204554 76 351 13.0 24.0 0.00 0.00 0.00 31 1011.5
20260508204048 75 346 14.0 22.0 0.00 0.00 0.00 31 1011.4
20260508203552 75 11 13.0 24.0 0.00 0.00 0.00 32 1011.6
20260508203053 76 342 16.0 24.0 0.00 0.00 0.00 31 1011.6
20260508202548 75 335 13.0 24.0 0.00 0.00 0.00 33 1011.6
20260508202049 75 348 14.0 27.0 0.00 0.00 0.00 32 1011.7
20260508201554 75 15 14.0 27.0 0.00 0.00 0.00 33 1011.7
20260508201049 75 321 17.0 27.0 0.00 0.00 0.00 34 1011.7
20260508200548 74 346 7.0 23.0 0.00 0.00 0.00 35 1011.7
20260508200100 74 333 12.0 23.0 0.00 0.00 0.00 34 1011.8
20260508195548 74 317 12.0 23.0 0.00 0.00 0.00 32 1012.0
20260508195049 74 320 11.0 18.0 0.00 0.00 0.00 34 1011.9
20260508194558 74 37 10.0 22.0 0.00 0.00 0.00 34 1011.9
20260508194048 74 335 10.0 22.0 0.00 0.00 0.00 34 1012.0
20260508193549 75 30 16.0 28.0 0.00 0.00 0.00 33 1012.0
20260508193110 75 332 16.0 28.0 0.00 0.00 0.00 33 1011.8
20260508192549 75 335 18.0 28.0 0.00 0.00 0.00 32 1011.8
20260508192052 75 354 16.0 25.0 0.00 0.00 0.00 34 1011.8
20260508191600 75 1 18.0 26.0 0.00 0.00 0.00 34 1011.7
20260508191052 75 323 14.0 26.0 0.00 0.00 0.00 34 1011.6
20260508190547 75 1 17.0 26.0 0.00 0.00 0.00 35 1011.5
20260508190113 74 349 17.0 25.0 0.00 0.00 0.00 35 1011.5
20260508185550 75 320 12.0 25.0 0.00 0.00 0.00 36 1011.5
20260508185049 74 336 18.0 25.0 0.00 0.00 0.00 36 1011.6
20260508184559 75 357 14.0 26.0 0.00 0.00 0.00 36 1011.6
20260508184045 74 314 16.0 26.0 0.00 0.00 0.00 37 1011.6
20260508183548 75 322 13.0 23.0 0.00 0.00 0.00 37 1011.5
20260508183109 75 313 16.0 24.0 0.00 0.00 0.00 37 1011.7
20260508182546 74 332 15.0 24.0 0.00 0.00 0.00 37 1011.6
20260508182045 74 18 14.0 20.0 0.00 0.00 0.00 38 1011.7
20260508181557 75 343 13.0 20.0 0.00 0.00 0.00 37 1011.8
20260508181052 74 338 13.0 25.0 0.00 0.00 0.00 37 1011.8
20260508180552 74 326 16.0 25.0 0.00 0.00 0.00 37 1012.0
20260508175548 73 326 14.0 24.0 0.00 0.00 0.00 38 1011.9
20260508175049 73 348 16.0 24.0 0.00 0.00 0.00 38 1012.1
20260508174608 73 342 14.0 24.0 0.00 0.00 0.00 41 1012.2
20260508174049 74 359 15.0 20.0 0.00 0.00 0.00 39 1012.2
20260508173549 73 341 10.0 22.0 0.00 0.00 0.00 42 1012.2
20260508173054 73 318 12.0 22.0 0.00 0.00 0.00 43 1012.3
20260508172548 72 345 12.0 21.0 0.00 0.00 0.00 43 1012.4
20260508172051 72 27 12.0 20.0 0.00 0.00 0.00 43 1012.5
20260508171554 72 311 12.0 20.0 0.00 0.00 0.00 43 1012.5
20260508171051 71 352 14.0 20.0 0.00 0.00 0.00 45 1012.5
20260508170548 71 16 7.0 21.0 0.00 0.00 0.00 44 1012.4
20260508170105 71 4 14.0 21.0 0.00 0.00 0.00 44 1012.5
20260508165547 71 337 14.0 21.0 0.00 0.00 0.00 45 1012.5
20260508165047 70 330 13.0 20.0 0.00 0.00 0.00 44 1012.6
20260508164553 70 7 12.0 20.0 0.00 0.00 0.00 47 1012.7
20260508164048 69 14 14.0 22.0 0.00 0.00 0.00 45 1012.7
20260508163551 70 1 16.0 22.0 0.00 0.00 0.00 45 1012.6
20260508163051 70 336 16.0 21.0 0.00 0.00 0.00 45 1012.6
20260508162547 70 32 14.0 22.0 0.00 0.00 0.00 46 1012.6
20260508162047 70 6 15.0 23.0 0.00 0.00 0.00 46 1012.6
20260508161554 69 34 14.0 23.0 0.00 0.00 0.00 48 1012.5
20260508161048 69 6 18.0 25.0 0.00 0.00 0.00 46 1012.5
20260508160548 70 11 18.0 25.0 0.00 0.00 0.00 45 1012.3
20260508160052 70 10 19.0 25.0 0.00 0.00 0.00 44 1012.2
20260508155548 70 7 14.0 22.0 0.00 0.00 0.00 44 1012.2
20260508155048 70 23 15.0 22.0 0.00 0.00 0.00 46 1012.2
20260508154551 70 331 16.0 22.0 0.00 0.00 0.00 46 1012.3
20260508154048 70 359 16.0 22.0 0.00 0.00 0.00 47 1012.4
20260508153548 70 335 16.0 22.0 0.00 0.00 0.00 47 1012.3
20260508153056 69 349 16.0 20.0 0.00 0.00 0.00 50 1012.3
20260508152549 68 338 11.0 19.0 0.00 0.00 0.00 52 1012.3
20260508152048 67 322 13.0 18.0 0.00 0.00 0.00 52 1012.4
20260508151556 67 345 14.0 18.0 0.00 0.00 0.00 51 1012.5
20260508151048 67 326 12.0 17.0 0.00 0.00 0.00 52 1012.3
20260508150548 66 4 12.0 17.0 0.00 0.00 0.00 52 1012.3
20260508150056 66 332 11.0 17.0 0.00 0.00 0.00 53 1012.1
20260508145548 66 358 11.0 17.0 0.00 0.00 0.00 54 1012.2
20260508145048 66 360 11.0 16.0 0.00 0.00 0.00 53 1012.1
20260508144554 64 324 12.0 16.0 0.00 0.00 0.00 55 1012.2
20260508144048 64 341 10.0 15.0 0.00 0.00 0.00 55 1012.2
20260508143548 63 4 9.0 16.0 0.00 0.00 0.00 57 1012.1
20260508143058 63 353 10.0 16.0 0.00 0.00 0.00 58 1012.2
20260508142548 62 1 9.0 15.0 0.00 0.00 0.00 58 1012.0
20260508142048 61 11 6.0 9.0 0.00 0.00 0.00 61 1012.1
20260508141601 60 337 4.0 9.0 0.00 0.00 0.00 61 1012.1
20260508141047 59 336 5.0 9.0 0.00 0.00 0.00 61 1012.1
20260508140548 59 337 4.0 8.0 0.00 0.00 0.00 62 1012.0
20260508140057 58 343 6.0 9.0 0.00 0.00 0.00 61 1011.9
20260508135548 58 344 7.0 9.0 0.00 0.00 0.00 61 1011.8
20260508135048 57 2 5.0 8.0 0.00 0.00 0.00 62 1011.6
20260508134555 56 332 3.0 7.0 0.00 0.00 0.00 66 1011.7
20260508134047 54 326 2.0 4.0 0.00 0.00 0.00 69 1011.7
20260508133547 53 289 1.0 4.0 0.00 0.00 0.00 70 1011.5
20260508133055 53 0 0.0 2.0 0.00 0.00 0.00 70 1011.4
20260508132548 52 0 0.0 4.0 0.00 0.00 0.00 70 1011.4
20260508132048 51 0 1.0 4.0 0.00 0.00 0.00 71 1011.3
20260508131608 51 312 2.0 4.0 0.00 0.00 0.00 72 1011.4
20260508131048 50 283 1.0 2.0 0.00 0.00 0.00 73 1011.2
20260508130552 49 0 0.0 5.0 0.00 0.00 0.00 73 1011.2
20260508130055 48 285 1.0 5.0 0.00 0.00 0.00 74 1011.2
20260508125550 47 271 0.0 4.0 0.00 0.00 0.00 77 1011.2
20260508125047 47 0 0.0 2.0 0.00 0.00 0.00 76 1011.2
20260508124554 46 0 0.0 2.0 0.00 0.00 0.00 75 1010.9
20260508124048 46 0 0.0 1.0 0.00 0.00 0.00 75 1010.9
20260508123548 46 0 0.0 3.0 0.00 0.00 0.00 75 1010.9
20260508123116 46 0 0.0 3.0 0.00 0.00 0.00 75 1010.9